{"data":{"norad_id":65592,"intl_designator":"2025-207A","name":"STARLINK-35267","alt_names":[],"object_type":"PAYLOAD","status":"ACTIVE","operator":null,"country":"US","launch_date":"2025-09-13","launch_site_code":"AFWTR","launch_vehicle":null,"mission":null,"orbit_class":"UNKNOWN","rcs_meters":null,"size_class":null,"mass_kg":null,"dimensions":null,"purposes":["comms"],"wikipedia_slug":null,"has_3d_model":false,"image_url":null,"decayed_at":null,"tle_current":{"epoch":"2026-09-20T21:53:24.684000Z","epoch_age_seconds":76414,"freshness":"FRESH","line1":"1 65592U 25207A   26263.91209125  .00012338  00000+0  38363-3 0  9993","line2":"2 65592  97.2833 326.4695 0001245  94.4743 265.6642 15.33464271 57648","mean_motion":15.33464271,"eccentricity":0.0001245,"inclination_deg":97.2833,"raan_deg":326.4695,"arg_perigee_deg":94.4743,"mean_anomaly_deg":265.6642,"bstar":0.00038363,"rev_number":5764,"period_min":93.905024540347,"perigee_km":464.63380709755,"apogee_km":466.33786918424,"semimajor_km":6843.6228381409,"source":"CELESTRAK","updated_at":"2026-09-21T09:00:35.652720Z"}}}